When you browse on this site, cookies collect data to enhance your experience and personalize the content and advertising you see.
Visit our Privacy Policy to learn more. By continuing to use the site, you agree to this use of cookies and data.
  • en France
  • Liste des pays
  • À 7 jours
  • Température de l'eau
  • Carte météo
  • Widgets météo
  • user-avatar
    Se connecter

    Météo par heure à Hamilton

    Ce jour, 10 Avril, Vendredi

    Heure Température Précipitation Vent Pression Humidité
    00:00 -1°C° 0 mm 8 m/s 733 mmHg 74%
    01:00 -2°C° 0 mm 8 m/s 733 mmHg 76%
    02:00 -2°C° 0 mm 8 m/s 733 mmHg 75%
    03:00 -2°C° 0 mm 8 m/s 733 mmHg 73%
    04:00 -4°C° 0 mm 8 m/s 733 mmHg 72%
    05:00 -4°C° 0 mm 8 m/s 734 mmHg 70%
    06:00 -4°C° 0 mm 9 m/s 734 mmHg 69%
    07:00 -4°C° 0 mm 9 m/s 735 mmHg 68%
    08:00 -3°C° 0 mm 9 m/s 735 mmHg 64%
    09:00 -1°C° 0 mm 9 m/s 736 mmHg 61%
    10:00 0°C° 0 mm 9 m/s 737 mmHg 58%
    11:00 +1°C° 0 mm 9 m/s 737 mmHg 57%
    12:00 +1°C° 0 mm 9 m/s 738 mmHg 56%
    13:00 +2°C° 0 mm 9 m/s 738 mmHg 55%
    14:00 +2°C° 0 mm 9 m/s 739 mmHg 54%
    15:00 +1°C° 0 mm 9 m/s 739 mmHg 54%
    16:00 +1°C° 0 mm 9 m/s 740 mmHg 54%
    17:00 0°C° 0 mm 8 m/s 740 mmHg 55%
    18:00 0°C° 0 mm 7 m/s 740 mmHg 56%
    19:00 -1°C° 0 mm 6 m/s 741 mmHg 58%
    20:00 -2°C° 0 mm 6 m/s 741 mmHg 59%
    21:00 -1°C° 0 mm 5 m/s 742 mmHg 61%
    22:00 -2°C° 0 mm 5 m/s 742 mmHg 63%
    23:00 -2°C° 0 mm 5 m/s 743 mmHg 63%

    Demain, 11 Avril, Samedi

    Heure Température Précipitation Vent Pression Humidité
    00:00 -2°C° 0 mm 5 m/s 743 mmHg 63%
    01:00 -2°C° 0 mm 5 m/s 743 mmHg 63%
    02:00 -2°C° 0 mm 5 m/s 743 mmHg 63%
    03:00 -2°C° 0 mm 5 m/s 744 mmHg 64%
    04:00 -2°C° 0 mm 4 m/s 744 mmHg 64%
    05:00 -2°C° 0 mm 5 m/s 744 mmHg 61%
    06:00 -2°C° 0 mm 5 m/s 744 mmHg 58%
    07:00 -1°C° 0 mm 5 m/s 745 mmHg 55%
    08:00 0°C° 0 mm 5 m/s 745 mmHg 53%
    09:00 +2°C° 0 mm 5 m/s 745 mmHg 51%
    10:00 +5°C° 0 mm 5 m/s 745 mmHg 49%
    11:00 +6°C° 0 mm 5 m/s 745 mmHg 48%
    12:00 +7°C° 0 mm 5 m/s 745 mmHg 47%
    13:00 +8°C° 0 mm 5 m/s 745 mmHg 46%
    14:00 +8°C° 0 mm 5 m/s 745 mmHg 45%
    15:00 +8°C° 0 mm 5 m/s 745 mmHg 45%
    16:00 +8°C° 0 mm 5 m/s 744 mmHg 45%
    17:00 +7°C° 0 mm 4 m/s 744 mmHg 51%
    18:00 +6°C° 0 mm 4 m/s 744 mmHg 57%
    19:00 +5°C° 0 mm 3 m/s 744 mmHg 63%
    20:00 +5°C° 0 mm 3 m/s 744 mmHg 66%
    21:00 +4°C° 0 mm 3 m/s 744 mmHg 69%
    22:00 +4°C° 0 mm 3 m/s 744 mmHg 72%
    23:00 +4°C° 0 mm 4 m/s 744 mmHg 74%

    Après-demain, 12 Avril, Dimanche

    Heure Température Précipitation Vent Pression Humidité
    00:00 +5°C° 0 mm 4 m/s 744 mmHg 75%
    01:00 +5°C° 0 mm 4 m/s 744 mmHg 76%
    02:00 +5°C° 0.5 mm 4 m/s 743 mmHg 82%
    03:00 +6°C° 0.5 mm 5 m/s 743 mmHg 87%
    04:00 +6°C° 0.5 mm 5 m/s 743 mmHg 93%
    05:00 +6°C° 0.3 mm 5 m/s 743 mmHg 92%
    06:00 +6°C° 0.3 mm 5 m/s 743 mmHg 90%
    07:00 +6°C° 0.3 mm 5 m/s 743 mmHg 89%
    08:00 +6°C° 0.2 mm 5 m/s 743 mmHg 88%
    09:00 +6°C° 0.2 mm 4 m/s 743 mmHg 88%
    10:00 +7°C° 0.2 mm 4 m/s 743 mmHg 87%
    11:00 +8°C° 0.6 mm 3 m/s 743 mmHg 88%
    12:00 +8°C° 0.6 mm 3 m/s 743 mmHg 89%
    13:00 +8°C° 0.6 mm 2 m/s 743 mmHg 89%
    14:00 +8°C° 0.9 mm 2 m/s 743 mmHg 91%
    15:00 +8°C° 0.9 mm 2 m/s 742 mmHg 93%
    16:00 +8°C° 0.9 mm 2 m/s 742 mmHg 95%
    17:00 +8°C° 1 mm 2 m/s 742 mmHg 96%
    18:00 +8°C° 1 mm 3 m/s 742 mmHg 97%
    19:00 +8°C° 1 mm 3 m/s 742 mmHg 98%
    20:00 +8°C° 0.4 mm 3 m/s 741 mmHg 98%
    21:00 +8°C° 0.4 mm 3 m/s 740 mmHg 98%
    22:00 +8°C° 0.4 mm 3 m/s 740 mmHg 97%
    23:00 +7°C° 0.3 mm 4 m/s 738 mmHg 97%

    13 Avril, Lundi

    Heure Température Précipitation Vent Pression Humidité
    00:00 +8°C° 0.3 mm 5 m/s 736 mmHg 97%
    01:00 +8°C° 0.3 mm 5 m/s 734 mmHg 97%
    02:00 +8°C° 1.3 mm 5 m/s 732 mmHg 97%
    03:00 +9°C° 1.3 mm 5 m/s 730 mmHg 97%
    04:00 +9°C° 1.3 mm 5 m/s 728 mmHg 97%
    05:00 +10°C° 1 mm 5 m/s 726 mmHg 95%
    06:00 +11°C° 1 mm 6 m/s 725 mmHg 93%
    07:00 +13°C° 1 mm 6 m/s 723 mmHg 92%
    08:00 +14°C° 1 mm 7 m/s 722 mmHg 88%
    09:00 +15°C° 1 mm 8 m/s 721 mmHg 84%
    10:00 +16°C° 1 mm 9 m/s 720 mmHg 81%
    11:00 +13°C° 0.1 mm 11 m/s 721 mmHg 77%
    12:00 +12°C° 0.1 mm 13 m/s 722 mmHg 73%
    13:00 +9°C° 0.1 mm 15 m/s 723 mmHg 69%
    14:00 +7°C° 0 mm 16 m/s 725 mmHg 69%
    15:00 +5°C° 0 mm 16 m/s 727 mmHg 68%
    16:00 +2°C° 0 mm 16 m/s 728 mmHg 68%
    17:00 +2°C° 0 mm 16 m/s 730 mmHg 68%
    18:00 +1°C° 0 mm 15 m/s 731 mmHg 68%
    19:00 +1°C° 0 mm 14 m/s 733 mmHg 68%
    20:00 0°C° 0.1 mm 14 m/s 734 mmHg 69%
    21:00 0°C° 0.1 mm 13 m/s 735 mmHg 70%
    22:00 -1°C° 0.1 mm 13 m/s 736 mmHg 71%
    23:00 -2°C° 0.1 mm 12 m/s 737 mmHg 71%

    14 Avril, Mardi

    Heure Température Précipitation Vent Pression Humidité
    00:00 -2°C° 0.1 mm 12 m/s 737 mmHg 71%
    01:00 -2°C° 0.1 mm 11 m/s 738 mmHg 71%
    02:00 -3°C° 0 mm 11 m/s 738 mmHg 72%
    03:00 -3°C° 0 mm 11 m/s 738 mmHg 73%
    04:00 -3°C° 0 mm 11 m/s 739 mmHg 73%
    05:00 -4°C° 0.1 mm 11 m/s 739 mmHg 74%
    06:00 -4°C° 0.1 mm 10 m/s 740 mmHg 75%
    07:00 -4°C° 0.1 mm 10 m/s 741 mmHg 76%
    08:00 -3°C° 0.1 mm 11 m/s 742 mmHg 71%
    09:00 -2°C° 0.1 mm 11 m/s 742 mmHg 65%
    10:00 -2°C° 0.1 mm 11 m/s 743 mmHg 60%
    11:00 -1°C° 0 mm 11 m/s 744 mmHg 57%
    12:00 -1°C° 0 mm 12 m/s 744 mmHg 53%
    13:00 0°C° 0 mm 12 m/s 745 mmHg 50%
    14:00 +1°C° 0 mm 11 m/s 745 mmHg 49%
    15:00 +1°C° 0 mm 11 m/s 746 mmHg 49%
    16:00 +1°C° 0 mm 10 m/s 746 mmHg 48%
    17:00 0°C° 0 mm 9 m/s 747 mmHg 52%
    18:00 -1°C° 0 mm 8 m/s 747 mmHg 56%
    19:00 -2°C° 0 mm 8 m/s 748 mmHg 59%
    20:00 -2°C° 0 mm 7 m/s 748 mmHg 60%
    21:00 -3°C° 0 mm 7 m/s 749 mmHg 61%
    22:00 -3°C° 0 mm 7 m/s 749 mmHg 61%
    23:00 -3°C° 0 mm 7 m/s 750 mmHg 61%

    15 Avril, Mercredi

    Heure Température Précipitation Vent Pression Humidité
    00:00 -4°C° 0 mm 6 m/s 750 mmHg 61%
    01:00 -4°C° 0 mm 6 m/s 750 mmHg 61%
    02:00 -4°C° 0 mm 6 m/s 750 mmHg 60%
    03:00 -4°C° 0 mm 6 m/s 750 mmHg 59%
    04:00 -4°C° 0 mm 5 m/s 750 mmHg 58%
    05:00 -4°C° 0 mm 6 m/s 750 mmHg 57%
    06:00 -3°C° 0 mm 7 m/s 750 mmHg 56%
    07:00 -2°C° 0 mm 7 m/s 750 mmHg 55%
    08:00 -1°C° 0 mm 7 m/s 750 mmHg 49%
    09:00 0°C° 0 mm 8 m/s 751 mmHg 43%
    10:00 +1°C° 0 mm 8 m/s 751 mmHg 38%
    11:00 +1°C° 0 mm 8 m/s 751 mmHg 37%
    12:00 +3°C° 0 mm 7 m/s 751 mmHg 37%
    13:00 +4°C° 0 mm 7 m/s 750 mmHg 36%
    14:00 +4°C° 0.1 mm 7 m/s 750 mmHg 40%
    15:00 +3°C° 0.1 mm 6 m/s 750 mmHg 45%
    16:00 +3°C° 0.1 mm 6 m/s 750 mmHg 49%
    17:00 +2°C° 0 mm 5 m/s 750 mmHg 51%
    18:00 +3°C° 0 mm 4 m/s 750 mmHg 54%
    19:00 +2°C° 0 mm 3 m/s 750 mmHg 56%
    20:00 +2°C° 0 mm 2 m/s 750 mmHg 60%
    21:00 +2°C° 0 mm 2 m/s 750 mmHg 63%
    22:00 +2°C° 0 mm 1 m/s 749 mmHg 66%
    23:00 +2°C° 0 mm 1 m/s 749 mmHg 66%
    Voir plus